Overview Statistics Trail Chart Weather Telemetry Raw packets
 

This is the latest recevied weather packets stored in our database for station/object 4S6DRJ-13. If no packets are shown the sender has not sent any weather packets the latest 10 day(s).

<< 393 394 395 396 397 398 399 >>
Time Temp. Humidity Pressure Rain* Wind** Luminosity Snow
1787868537 27.78° C 87% 1008.6 hPa 0 mm 1.79 m/s, 208° 0 W/m² -
1787868476 27.78° C 87% 1008.5 hPa 0 mm 1.34 m/s, 215° 0 W/m² -
1787868416 27.78° C 87% 1008.5 hPa 0 mm 0.89 m/s, 249° 0 W/m² -
1787868354 27.78° C 87% 1008.7 hPa 0 mm 1.34 m/s, 286° 0 W/m² -
1787868293 27.78° C 87% 1008.4 hPa 0 mm 1.79 m/s, 216° 0 W/m² -
1787868232 27.78° C 87% 1008.5 hPa 0 mm 0.89 m/s, 224° 0 W/m² -
1787868171 27.78° C 87% 1008.6 hPa 0 mm 1.34 m/s, 269° 0 W/m² -
1787868110 27.78° C 87% 1008.7 hPa 0 mm 0.89 m/s, 216° 0 W/m² -
1787868049 27.78° C 87% 1008.7 hPa 0 mm 0.89 m/s, 249° 0 W/m² -
1787867988 27.78° C 87% 1008.6 hPa 0 mm 1.34 m/s, 249° 0 W/m² -
1787867927 27.78° C 87% 1008.5 hPa 0 mm 1.34 m/s, 192° 0 W/m² -
1787867866 27.78° C 87% 1008.6 hPa 0 mm 0.45 m/s, 201° 0 W/m² -
1787867805 27.78° C 87% 1008.7 hPa 0 mm 0.89 m/s, 279° 0 W/m² -
1787867744 27.78° C 87% 1008.8 hPa 0 mm 0.89 m/s, 210° 0 W/m² -
1787867684 27.78° C 87% 1008.6 hPa 0 mm 1.79 m/s, 217° 0 W/m² -
1787867622 27.78° C 87% 1008.6 hPa 0 mm 0.45 m/s, 234° 0 W/m² -
1787867561 27.78° C 87% 1008.9 hPa 0 mm 0.45 m/s, 193° 0 W/m² -
1787867500 27.78° C 87% 1008.9 hPa 0 mm 1.34 m/s, 221° 0 W/m² -
1787867439 27.78° C 87% 1008.8 hPa 0 mm 1.79 m/s, 228° 0 W/m² -
1787867378 27.78° C 87% 1008.8 hPa 0 mm 0.45 m/s, 171° 0 W/m² -
1787867317 27.78° C 87% 1008.8 hPa 0 mm 0.89 m/s, 264° 0 W/m² -
1787867256 27.78° C 87% 1008.7 hPa 0 mm 1.79 m/s, 221° 0 W/m² -
1787867195 27.78° C 87% 1008.8 hPa 0 mm 1.79 m/s, 235° 0 W/m² -
1787867134 27.78° C 88% 1008.8 hPa 0 mm 0.89 m/s, 240° 0 W/m² -
1787867073 27.78° C 88% 1008.9 hPa 0 mm 0 m/s 0 W/m² -

* Rain latest hour (hover to see other rain measurements)
** Current wind speed in m/s (hover to see current wind gust speed)